N444BL KFRG-KPHL

Flight info

Callsign N444BL
Flight time 0h 32m
Altitude 24000
Route KFRG JFK T224 JIIMS JIIMS4 KPHL
Aircraft CRJ7/M-VGDW/C

Departure

Time 2026-05-07 01:36
Airport Republic Airport (KFRG)

Arrival

Time 2026-05-07 02:09
Airport Philadelphia International Airport (KPHL)
Time Latitude Longitude Altitude Speed Heading
2026-05-07 01:26 40.72620 -73.41610 79 ft 0 kts 313°
2026-05-07 01:32 40.72629 -73.41615 82 ft 3 kts 354°
2026-05-07 01:32 40.72668 -73.41596 84 ft 10 kts 15°
2026-05-07 01:32 40.72710 -73.41564 85 ft 8 kts 49°
2026-05-07 01:32 40.72770 -73.41544 86 ft 9 kts
2026-05-07 01:33 40.72834 -73.41532 85 ft 10 kts 13°
2026-05-07 01:33 40.72898 -73.41539 83 ft 13 kts 341°
2026-05-07 01:33 40.73010 -73.41550 70 ft 18 kts
2026-05-07 01:33 40.73134 -73.41552 81 ft 18 kts 357°
2026-05-07 01:34 40.73263 -73.41556 75 ft 20 kts 359°
2026-05-07 01:34 40.73405 -73.41559 71 ft 20 kts 359°
2026-05-07 01:34 40.73540 -73.41562 84 ft 18 kts 359°
2026-05-07 01:34 40.73624 -73.41562 84 ft 1 kts 359°
2026-05-07 01:35 40.73639 -73.41563 86 ft 3 kts 359°
2026-05-07 01:35 40.73660 -73.41563 88 ft 3 kts 359°
2026-05-07 01:35 40.73684 -73.41564 86 ft 3 kts 359°
2026-05-07 01:35 40.73730 -73.41549 89 ft 9 kts 37°
2026-05-07 01:36 40.73785 -73.41493 89 ft 10 kts 83°
2026-05-07 01:36 40.73591 -73.41455 83 ft 68 kts 181°
2026-05-07 01:36 40.72782 -73.41451 96 ft 158 kts 176°
2026-05-07 01:36 40.71598 -73.41655 807 ft 183 kts 200°
2026-05-07 01:37 40.70395 -73.42540 1619 ft 212 kts 213°
2026-05-07 01:37 40.69175 -73.43284 2404 ft 174 kts 210°
2026-05-07 01:37 40.68468 -73.43710 2373 ft 169 kts 211°
2026-05-07 01:37 40.67352 -73.44428 2602 ft 185 kts 213°
2026-05-07 01:38 40.66129 -73.45293 3077 ft 215 kts 210°
2026-05-07 01:38 40.64675 -73.46098 3024 ft 232 kts 209°
2026-05-07 01:38 40.63218 -73.47128 2951 ft 238 kts 221°
2026-05-07 01:38 40.61702 -73.48940 2858 ft 212 kts 225°
2026-05-07 01:39 40.60920 -73.49847 2791 ft 232 kts 224°
2026-05-07 01:39 40.59696 -73.51199 2899 ft 226 kts 223°
2026-05-07 01:39 40.58430 -73.52486 2674 ft 231 kts 220°
2026-05-07 01:39 40.57146 -73.53627 2932 ft 214 kts 215°
2026-05-07 01:40 40.55879 -73.54788 3655 ft 224 kts 225°
2026-05-07 01:40 40.54764 -73.56263 4204 ft 249 kts 230°
2026-05-07 01:40 40.53530 -73.58047 4865 ft 250 kts 231°
2026-05-07 01:40 40.52457 -73.59740 5367 ft 234 kts 233°
2026-05-07 01:41 40.51371 -73.61433 5460 ft 249 kts 230°
2026-05-07 01:41 40.50092 -73.63048 5646 ft 257 kts 226°
2026-05-07 01:41 40.48783 -73.64691 5734 ft 261 kts 227°
2026-05-07 01:41 40.47481 -73.66239 5993 ft 245 kts 224°
2026-05-07 01:42 40.46170 -73.67730 6152 ft 254 kts 227°
2026-05-07 01:42 40.44865 -73.69405 6633 ft 271 kts 228°
2026-05-07 01:42 40.43499 -73.71159 7106 ft 271 kts 228°
2026-05-07 01:42 40.42200 -73.72785 6827 ft 255 kts 226°
2026-05-07 01:43 40.40927 -73.74293 6659 ft 238 kts 226°
2026-05-07 01:43 40.39608 -73.75778 6549 ft 256 kts 224°
2026-05-07 01:43 40.38275 -73.77171 6509 ft 237 kts 221°
2026-05-07 01:43 40.36981 -73.78393 6330 ft 262 kts 217°
2026-05-07 01:44 40.35511 -73.79696 6829 ft 239 kts 222°
2026-05-07 01:44 40.34206 -73.81049 6982 ft 246 kts 219°
2026-05-07 01:44 40.32764 -73.82408 6787 ft 261 kts 220°
2026-05-07 01:44 40.31235 -73.83622 6680 ft 251 kts 214°
2026-05-07 01:45 40.29712 -73.84559 6729 ft 237 kts 212°
2026-05-07 01:45 40.28373 -73.85649 6906 ft 212 kts 225°
2026-05-07 01:45 40.27381 -73.86972 6935 ft 198 kts 230°
2026-05-07 01:45 40.26343 -73.88414 6808 ft 242 kts 231°
2026-05-07 01:46 40.25074 -73.90175 6758 ft 289 kts 231°
2026-05-07 01:46 40.23731 -73.92201 6662 ft 291 kts 236°
2026-05-07 01:46 40.22569 -73.94227 6718 ft 258 kts 231°
2026-05-07 01:46 40.21323 -73.95767 6509 ft 241 kts 231°
2026-05-07 01:47 40.20298 -73.97406 6371 ft 229 kts 233°
2026-05-07 01:47 40.19131 -73.98993 6657 ft 247 kts 228°
2026-05-07 01:47 40.17896 -74.00578 7021 ft 254 kts 228°
2026-05-07 01:47 40.16565 -74.02229 7222 ft 260 kts 228°
2026-05-07 01:48 40.15308 -74.03776 7771 ft 248 kts 228°
2026-05-07 01:48 40.13946 -74.05355 7698 ft 274 kts 226°
2026-05-07 01:48 40.12545 -74.06868 7740 ft 251 kts 223°
2026-05-07 01:48 40.11114 -74.08392 7723 ft 275 kts 224°
2026-05-07 01:49 40.09684 -74.09890 7692 ft 251 kts 224°
2026-05-07 01:49 40.08379 -74.11308 7753 ft 232 kts 225°
2026-05-07 01:49 40.07180 -74.12600 8222 ft 224 kts 225°
2026-05-07 01:49 40.05888 -74.13970 7792 ft 254 kts 224°
2026-05-07 01:50 40.04475 -74.15440 7351 ft 256 kts 224°
2026-05-07 01:50 40.03101 -74.16911 7661 ft 268 kts 223°
2026-05-07 01:50 40.01665 -74.18477 7838 ft 271 kts 225°
2026-05-07 01:50 40.00229 -74.19974 7958 ft 258 kts 223°
2026-05-07 01:51 39.98930 -74.21522 8220 ft 243 kts 225°
2026-05-07 01:51 39.97674 -74.22868 8128 ft 232 kts 221°
2026-05-07 01:51 39.96325 -74.24339 7716 ft 263 kts 226°
2026-05-07 01:51 39.94949 -74.25941 7841 ft 268 kts 226°
2026-05-07 01:52 39.93617 -74.27522 7966 ft 251 kts 226°
2026-05-07 01:52 39.92332 -74.29037 7998 ft 248 kts 226°
2026-05-07 01:52 39.91057 -74.30529 8251 ft 237 kts 226°
2026-05-07 01:52 39.89896 -74.31866 8228 ft 220 kts 226°
2026-05-07 01:53 39.88770 -74.33169 7891 ft 214 kts 225°
2026-05-07 01:53 39.87644 -74.34442 7581 ft 207 kts 227°
2026-05-07 01:53 39.86642 -74.35663 7464 ft 193 kts 227°
2026-05-07 01:53 39.85696 -74.36859 7244 ft 196 kts 229°
2026-05-07 01:54 39.84681 -74.38394 7161 ft 252 kts 244°
2026-05-07 01:54 39.84405 -74.40479 7604 ft 214 kts 275°
2026-05-07 01:54 39.84749 -74.42309 7766 ft 205 kts 281°
2026-05-07 01:54 39.85046 -74.44057 7633 ft 198 kts 281°
2026-05-07 01:55 39.85512 -74.46007 7496 ft 251 kts 284°
2026-05-07 01:55 39.86024 -74.48166 7528 ft 238 kts 283°
2026-05-07 01:55 39.86528 -74.50143 7510 ft 230 kts 287°
2026-05-07 01:55 39.87106 -74.52284 7462 ft 274 kts 285°
2026-05-07 01:56 39.87718 -74.54678 7620 ft 270 kts 287°
2026-05-07 01:56 39.88372 -74.56910 7439 ft 267 kts 287°
2026-05-07 01:56 39.89031 -74.59294 7307 ft 287 kts 288°
2026-05-07 01:56 39.89720 -74.61646 7112 ft 268 kts 287°
2026-05-07 01:57 39.90345 -74.63807 7072 ft 244 kts 287°
2026-05-07 01:57 39.90978 -74.65880 6915 ft 250 kts 288°
2026-05-07 01:57 39.91585 -74.67986 6680 ft 247 kts 285°
2026-05-07 01:57 39.92164 -74.70081 6192 ft 244 kts 287°
2026-05-07 01:58 39.92761 -74.72150 5831 ft 255 kts 287°
2026-05-07 01:58 39.93389 -74.74453 5604 ft 271 kts 287°
2026-05-07 01:58 39.94043 -74.76711 5367 ft 260 kts 288°
2026-05-07 01:58 39.94693 -74.78865 5136 ft 252 kts 289°
2026-05-07 01:59 39.95326 -74.80893 5387 ft 244 kts 288°
2026-05-07 01:59 39.95904 -74.83093 5785 ft 258 kts 284°
2026-05-07 01:59 39.96416 -74.85234 5702 ft 240 kts 283°
2026-05-07 01:59 39.96867 -74.87374 5661 ft 257 kts 284°
2026-05-07 02:00 39.97422 -74.89675 5880 ft 278 kts 283°
2026-05-07 02:00 39.98049 -74.92121 6016 ft 278 kts 286°
2026-05-07 02:00 39.98669 -74.94354 6081 ft 248 kts 286°
2026-05-07 02:00 39.99192 -74.96404 5942 ft 229 kts 284°
2026-05-07 02:01 39.99686 -74.98349 5887 ft 238 kts 285°
2026-05-07 02:01 40.00323 -75.00456 5948 ft 260 kts 288°
2026-05-07 02:01 40.00992 -75.02535 5942 ft 240 kts 289°
2026-05-07 02:01 40.01625 -75.04580 5652 ft 261 kts 285°
2026-05-07 02:02 40.02269 -75.06953 5818 ft 270 kts 288°
2026-05-07 02:02 40.02904 -75.09019 6101 ft 234 kts 287°
2026-05-07 02:02 40.03611 -75.10851 5776 ft 226 kts 297°
2026-05-07 02:02 40.04503 -75.12654 4749 ft 246 kts 296°
2026-05-07 02:03 40.05380 -75.14606 4075 ft 249 kts 299°
2026-05-07 02:03 40.06291 -75.16486 3795 ft 239 kts 297°
2026-05-07 02:03 40.07170 -75.18380 3564 ft 255 kts 300°
2026-05-07 02:03 40.08073 -75.20353 3403 ft 246 kts 295°
2026-05-07 02:04 40.08806 -75.22335 2820 ft 245 kts 294°
2026-05-07 02:04 40.09613 -75.24228 2624 ft 239 kts 298°
2026-05-07 02:04 40.09932 -75.26229 2616 ft 231 kts 254°
2026-05-07 02:04 40.09048 -75.27851 2529 ft 217 kts 227°
2026-05-07 02:05 40.07762 -75.28879 2252 ft 218 kts 199°
2026-05-07 02:05 40.06395 -75.29406 2366 ft 195 kts 202°
2026-05-07 02:05 40.05023 -75.29693 2434 ft 217 kts 186°
2026-05-07 02:05 40.03348 -75.29394 2907 ft 264 kts 169°
2026-05-07 02:06 40.01669 -75.28793 3047 ft 240 kts 169°
2026-05-07 02:06 40.00118 -75.28170 2842 ft 226 kts 165°
2026-05-07 02:06 39.98686 -75.27568 2728 ft 203 kts 176°
2026-05-07 02:06 39.97314 -75.27352 2335 ft 195 kts 181°
2026-05-07 02:07 39.96018 -75.27087 2065 ft 186 kts 169°
2026-05-07 02:07 39.93621 -75.25928 1249 ft 178 kts 164°
2026-05-07 02:07 39.92469 -75.25420 880 ft 172 kts 166°
2026-05-07 02:08 39.91363 -75.24896 538 ft 165 kts 162°
2026-05-07 02:08 39.90323 -75.24374 333 ft 152 kts 163°
2026-05-07 02:08 39.89560 -75.24003 216 ft 149 kts 160°
2026-05-07 02:08 39.88607 -75.23532 59 ft 135 kts 160°
2026-05-07 02:09 39.87837 -75.23150 22 ft 92 kts 159°
2026-05-07 02:09 39.87559 -75.23014 21 ft 27 kts 171°
2026-05-07 02:09 39.87470 -75.23125 17 ft 12 kts 259°
2026-05-07 02:09 39.87452 -75.23226 18 ft 11 kts 255°
2026-05-07 02:10 39.87430 -75.23329 19 ft 13 kts 255°
2026-05-07 02:10 39.87405 -75.23453 17 ft 16 kts 256°
2026-05-07 02:10 39.87378 -75.23596 18 ft 17 kts 255°
2026-05-07 02:10 39.87346 -75.23751 18 ft 18 kts 255°
2026-05-07 02:11 39.87382 -75.23868 20 ft 15 kts 26°
2026-05-07 02:11 39.87426 -75.23741 19 ft 16 kts 60°
2026-05-07 02:11 39.87508 -75.23632 17 ft 18 kts 43°
2026-05-07 02:11 39.87614 -75.23551 19 ft 17 kts 26°
2026-05-07 02:12 39.87730 -75.23502 19 ft 18 kts
2026-05-07 02:12 39.87843 -75.23452 20 ft 9 kts 41°
2026-05-07 02:12 39.87859 -75.23402 21 ft 5 kts 89°
2026-05-07 02:12 39.87808 -75.23212 23 ft 43 kts 111°
2026-05-07 02:13 39.87756 -75.22993 20 ft 15 kts 68°
2026-05-07 02:13 39.87860 -75.22993 19 ft 26 kts 338°
2026-05-07 02:13 39.87960 -75.22956 20 ft 23 kts 74°
2026-05-07 02:13 39.88009 -75.22758 19 ft 18 kts 28°
2026-05-07 02:14 39.88067 -75.22727 19 ft 0 kts 71°